#timestamp,LO_Frequency,Hit,StdDev 
1544443215.1,286047005.8,N
1544443216.0,286047005.8,N
1544443235.8,286047005.6,N
1544443255.6,286047003.6,N
1544443275.5,286047003.6,N
1544443295.3,286046999.3,N
1544443315.1,286046996.2,N
1544443335.9,286046990.8,N
1544443355.7,286046987.4,N
1544443375.6,286046984.8,N
1544443395.4,286046984.3,N
1544443415.2,286046983.4,N
1544443435.1,286046981.4,N
1544443436.0,286046981.4,N
1544443455.8,286046985.4,N
1544443475.6,286046991.0,N
1544443495.5,286046990.7,N
1544443515.3,286046989.9,N
1544443535.2,286046985.9,N
1544443555.9,286046980.9,N
1544443575.7,286046981.2,N
1544443595.6,286046980.7,N
1544443615.4,286046986.8,N
1544443635.2,286046987.8,N
1544443655.1,286046987.7,N
1544443656.0,286046987.7,N
1544443675.8,286046985.5,N
1544443695.7,286046987.8,N
1544443715.5,286046988.3,N
1544443735.3,286046983.8,N
1544443755.2,286046982.6,N
1544443775.0,286046986.3,N
1544443775.9,286046986.3,N
1544443795.7,286046990.3,N
1544443815.6,286046993.8,N
1544443835.4,286046996.1,N
1544443855.3,286046999.1,N
1544443875.1,286047001.9,N
1544443876.0,286047001.9,N
1544443895.8,286047005.6,N
1544443915.7,286047003.3,N
1544443935.5,286047012.0,N
1544443955.3,286047013.9,N
1544443975.2,286047014.8,N
1544443995.0,286047014.1,N
1544443995.9,286047014.1,N
1544444015.8,286047017.4,N
1544444035.6,286047017.4,N
1544444055.4,286047019.1,N
1544444075.3,286047021.3,N
1544444095.1,286047022.8,N
1544444115.8,286047022.2,N
1544444135.7,286047017.7,N
1544444155.5,286047017.7,N
1544444175.4,286047017.9,N
1544444195.2,286047017.6,N
1544444215.0,286047016.8,N
1544444215.9,286047016.8,N
1544444235.8,286047014.9,N
1544444255.6,286047016.6,N
1544444305.5,286047017.3,E
1544444315.4,286047010.2,N
1544444335.2,286047000.4,P
1544444355.1,286047002.4,N
1544444356.0,286047002.4,N
1544444375.8,286047002.7,N
1544444395.6,286046996.7,N
1544444415.5,286046993.6,N
1544444435.3,286046994.2,N
1544444455.2,286046994.3,N
1544444475.9,286046996.2,N
1544444495.7,286046996.2,N
1544444515.6,286046995.7,N
1544444535.4,286047001.1,N
1544444555.2,286047003.6,N
1544444575.1,286047003.5,N
1544444576.0,286047003.5,N
1544444595.8,286046997.0,N
1544444615.7,286046995.2,N
1544444635.5,286046997.6,N
1544444655.3,286047000.0,N
1544444675.2,286047000.4,N
1544444695.0,286047000.2,N
1544444695.9,286047000.2,N
1544444715.7,286047005.5,N
1544444735.6,286047007.2,N
1544444755.4,286047007.4,N
1544444775.3,286047007.2,N
1544444795.1,286047005.8,N
1544444796.0,286047005.8,N
1544444815.8,286047003.7,N
1544444835.7,286047003.2,N
1544444855.5,286047003.5,N
1544444875.3,286047005.9,N
1544444895.2,286047005.9,N
1544444915.0,286047005.9,N
1544444915.9,286047005.9,N
1544444935.8,286047007.0,N
1544444955.6,286047006.0,N
1544444975.4,286047002.2,N
1544444995.3,286047000.2,N
1544445015.1,286046997.4,N
1544445035.9,286046990.9,N
1544445055.7,286046988.3,N
1544445075.5,286046983.0,Y
1544445095.4,286046980.5,P
1544445115.2,286046977.7,N
1544445135.0,286046976.1,N
1544445135.9,286046976.1,N
1544445155.8,286046978.2,N
1544445175.6,286046978.5,N
1544445195.5,286046976.4,N
1544445215.3,286046983.0,N
1544445235.1,286046988.0,N
1544445255.9,286046990.3,N
1544445275.7,286046991.2,N
1544445295.5,286046991.9,N
1544445315.4,286046993.9,N
1544445335.2,286046996.7,N
1544445355.0,286046998.5,N
1544445356.0,286046998.5,N
1544445375.8,286046996.5,N
1544445395.6,286046998.4,N
1544445415.5,286046998.2,N
1544445435.3,286046997.1,N
1544445455.1,286046998.4,N
1544445475.9,286047002.2,N
1544445495.7,286047005.4,N
1544445515.5,286047000.0,N
1544445535.4,286046995.3,N
1544445555.2,286046991.0,N
1544445575.1,286046984.8,N
1544445576.0,286046984.8,N
1544445595.8,286046977.8,N
1544445615.6,286046975.1,N
1544445635.5,286046969.8,Y
1544445655.3,286046981.4,P
1544445675.2,286046979.4,P
1544445695.9,286046977.5,P
1544445715.7,286046978.0,Y
1544445735.6,286046997.1,P
1544445755.4,286047001.9,N
1544445775.2,286047004.5,N
1544445795.1,286047007.7,N
1544445796.0,286047007.7,N
1544445815.8,286047008.8,N
1544445835.7,286047008.1,N
1544445855.5,286047010.4,N
1544445875.3,286047011.8,N
1544445895.2,286047012.4,N
1544445915.0,286047014.7,N
1544445915.9,286047014.7,N
1544445935.7,286047012.2,N
1544445955.6,286047004.9,N
1544445975.4,286047007.2,N
1544445995.3,286047006.9,N
1544446015.1,286047004.6,N
1544446016.0,286047004.6,N
1544446035.8,286047005.2,N
1544446055.7,286047005.9,N
1544446075.5,286047004.7,N
1544446095.4,286047004.1,N
1544446115.2,286047002.3,N
1544446135.0,286047005.6,N
1544446135.9,286047005.6,N
1544446155.8,286047004.7,N
1544446175.6,286047003.5,N
1544446195.4,286047000.6,N
1544446215.3,286046997.7,N
1544446235.1,286046998.4,N
1544446255.9,286047005.1,N
1544446275.7,286047008.9,N
1544446295.5,286047008.0,N
1544446315.4,286047007.5,N
1544446335.2,286047008.3,N
1544446355.1,286047012.1,N
1544446356.0,286047012.1,N
1544446375.8,286047009.7,N
1544446395.6,286047009.4,N
1544446415.5,286047014.9,Y
1544446435.3,286047008.9,P
1544446455.2,286047004.2,P
1544446475.9,286047001.1,N
1544446495.7,286047004.4,N
1544446515.6,286047001.2,N
1544446535.4,286046998.5,N
1544446555.2,286046995.8,N
1544446575.1,286046992.4,N
1544446576.0,286046992.4,N
1544446595.8,286046995.0,N
1544446615.7,286046999.8,N
1544446635.5,286047008.0,N
1544446655.3,286047008.0,N
1544446675.2,286047006.7,N
1544446695.0,286047005.1,N
1544446695.9,286047005.1,N
1544446715.8,286047006.4,N
1544446735.6,286047007.0,N
1544446755.4,286047005.1,N
1544446775.3,286047009.1,N
1544446795.1,286047008.7,N
